KH6HHG Weather Reports


time (UTC)temp
C
wind
direction
speed
KPH
gust
KPH
rain 1hr
cm
rain 24hr
cm
rain mn
cm
humidity
%
barometer
mb
20260906101004 21 61 4.8 8.0 0.03 0.18 0.00 94 1006.1
20260906100505 21 121 3.2 8.0 0.08 0.18 0.00 94 1006.1
20260906100004 21 58 8.0 11.3 0.08 0.18 0.00 94 1006.3
20260906095505 21 102 1.6 4.8 0.08 0.18 0.18 94 1006.3
20260906094504 21 77 4.8 8.0 0.08 0.18 0.18 94 1006.3
20260906093004 22 0 4.8 8.0 0.08 0.18 0.18 93 1006.6
20260906092505 22 351 1.6 4.8 0.08 0.18 0.18 94 1006.7
20260906092004 22 0 3.2 8.0 0.08 0.18 0.18 93 1006.8
20260906091505 22 92 1.6 4.8 0.08 0.18 0.18 93 1006.9
20260906085504 22 15 1.6 4.8 0.00 0.10 0.10 93 1007.0
20260906085003 22 15 3.2 4.8 0.00 0.10 0.10 93 1007.1
20260906084504 22 53 3.2 4.8 0.00 0.10 0.10 93 1007.1
20260906083506 22 76 6.4 9.7 0.00 0.10 0.10 92 1007.2
20260906082005 22 29 9.7 19.3 0.00 0.10 0.10 92 1007.2
20260906081505 22 28 8.0 16.1 0.00 0.10 0.10 92 1007.1
20260906080504 22 24 9.7 19.3 0.00 0.10 0.10 92 1007.3
20260906075004 22 63 3.2 8.0 0.00 0.10 0.10 92 1007.2
20260906074505 22 61 4.8 12.9 0.00 0.10 0.10 92 1007.2
20260906074004 22 24 9.7 14.5 0.00 0.10 0.10 92 1007.3
20260906073504 22 31 3.2 8.0 0.00 0.10 0.10 92 1007.3
20260906073004 22 48 6.4 12.9 0.00 0.10 0.10 92 1007.3
20260906072504 22 36 4.8 14.5 0.00 0.10 0.10 92 1007.2
20260906072004 22 51 9.7 16.1 0.00 0.10 0.10 92 1007.1
20260906071005 21 70 3.2 11.3 0.00 0.10 0.10 93 1007.0
20260906065505 21 50 8.0 16.1 0.00 0.10 0.10 93 1006.7
20260906065004 21 64 6.4 12.9 0.00 0.10 0.10 93 1006.6
20260906064505 21 29 9.7 16.1 0.00 0.10 0.10 93 1006.6
20260906064004 21 37 8.0 16.1 0.00 0.10 0.10 93 1006.5
20260906062504 21 39 8.0 20.9 0.00 0.10 0.10 93 1006.2
20260906061504 22 30 9.7 16.1 0.00 0.10 0.10 93 1006.2
20260906061004 22 19 8.0 12.9 0.00 0.10 0.10 93 1006.2
20260906060006 22 6 6.4 12.9 0.00 0.10 0.10 92 1006.3
20260906055004 22 7 6.4 12.9 0.00 0.10 0.10 92 1006.2
20260906054004 22 345 11.3 22.5 0.00 0.10 0.10 92 1006.0
20260906053006 22 30 12.9 22.5 0.00 0.10 0.10 93 1005.9
20260906052505 22 11 8.0 14.5 0.00 0.10 0.10 93 1005.8
20260906052005 22 7 4.8 11.3 0.00 0.10 0.10 93 1005.8
20260906050005 22 19 8.0 16.1 0.00 0.10 0.10 92 1005.7
20260906045004 22 22 8.0 12.9 0.00 0.10 0.10 92 1005.7
20260906044505 22 35 9.7 16.1 0.00 0.10 0.10 92 1005.6
20260906044004 22 65 8.0 14.5 0.03 0.10 0.10 92 1005.6
20260906043505 22 63 11.3 25.7 0.03 0.10 0.10 92 1005.6
20260906041004 22 23 9.7 19.3 0.03 0.10 0.10 93 1005.1
20260906040505 22 12 11.3 22.5 0.03 0.10 0.10 92 1005.2
20260906040005 22 28 9.7 19.3 0.03 0.10 0.10 92 1005.1
20260906034004 22 5 11.3 16.1 0.00 0.08 0.08 92 1005.2
20260906033504 22 351 12.9 20.9 0.00 0.08 0.08 92 1005.3
20260906033005 22 3 11.3 24.1 0.00 0.08 0.08 92 1005.3
20260906031505 22 18 9.7 20.9 0.00 0.08 0.08 91 1005.1
20260906031005 22 2 14.5 25.7 0.03 0.08 0.08 91 1005.1
20260906022504 23 16 12.9 27.4 0.05 0.08 0.08 90 1004.9
20260906021504 23 28 14.5 24.1 0.05 0.08 0.08 90 1004.9
20260906021005 23 41 11.3 27.4 0.05 0.08 0.08 90 1005.0
20260906020504 23 1 14.5 27.4 0.05 0.08 0.08 90 1004.9
20260906020004 23 14 16.1 24.1 0.05 0.08 0.08 91 1004.9
20260906015504 23 18 16.1 25.7 0.03 0.05 0.05 90 1004.9
20260906014505 24 31 14.5 32.2 0.03 0.05 0.05 88 1005.0
20260906014004 24 3 8.0 19.3 0.00 0.03 0.03 88 1005.0
20260906012504 25 5 9.7 20.9 0.00 0.05 0.03 87 1005.2
20260906012003 25 18 11.3 24.1 0.00 0.05 0.03 86 1005.2
20260906011004 26 348 14.5 22.5 0.00 0.05 0.03 84 1005.2
20260906010004 25 6 16.1 24.1 0.00 0.05 0.03 83 1005.2
20260906005504 26 9 12.9 27.4 0.00 0.05 0.03 83 1005.2
20260906004504 25 39 12.9 32.2 0.00 0.05 0.03 85 1005.2
20260906004004 25 46 14.5 35.4 0.00 0.05 0.03 87 1005.2
20260906003505 25 14 24.1 35.4 0.00 0.05 0.03 82 1005.1
20260906002504 25 19 20.9 35.4 0.00 0.05 0.03 84 1005.2
20260906001504 25 16 19.3 35.4 0.00 0.05 0.03 83 1005.2
20260906001005 26 25 19.3 35.4 0.00 0.05 0.03 80 1005.2
20260906000503 26 8 19.3 29.0 0.00 0.05 0.03 79 1005.2
20260905235004 26 33 17.7 33.8 0.00 0.05 0.03 80 1005.1
20260905234504 26 27 25.7 38.6 0.00 0.05 0.03 78 1005.3
20260905233004 26 9 20.9 37.0 0.00 0.05 0.03 80 1005.6
20260905232505 26 15 12.9 27.4 0.00 0.05 0.03 82 1005.7
20260905232004 26 30 17.7 29.0 0.00 0.05 0.03 80 1005.8
20260905231505 26 8 19.3 29.0 0.00 0.05 0.03 81 1005.8
20260905231004 26 18 19.3 33.8 0.00 0.05 0.03 81 1005.9
20260905230504 26 30 16.1 27.4 0.00 0.05 0.03 83 1006.1
20260905225504 26 23 17.7 25.7 0.00 0.05 0.03 80 1006.3
20260905225004 27 24 14.5 22.5 0.00 0.05 0.03 81 1006.3
20260905224004 27 24 16.1 29.0 0.00 0.05 0.03 79 1006.5
20260905223505 26 27 14.5 27.4 0.00 0.05 0.03 78 1006.6
20260905223004 26 25 14.5 29.0 0.00 0.05 0.03 79 1006.6
20260905222004 26 24 14.5 38.6 0.00 0.05 0.03 80 1006.5
20260905221004 26 18 16.1 27.4 0.00 0.05 0.03 80 1006.6
20260905220004 27 29 25.7 38.6 0.00 0.05 0.03 77 1006.8
20260905215004 26 18 17.7 29.0 0.00 0.05 0.03 79 1006.8
20260905213004 27 15 19.3 32.2 0.00 0.05 0.03 77 1006.8
20260905211504 27 2 19.3 32.2 0.00 0.05 0.03 75 1006.9
20260905211004 27 46 16.1 33.8 0.00 0.05 0.03 76 1007.0
20260905210503 27 20 16.1 33.8 0.00 0.05 0.03 76 1007.0
20260905205003 27 28 22.5 35.4 0.00 0.05 0.03 73 1007.0
20260905204504 27 7 19.3 32.2 0.00 0.05 0.03 75 1007.0
20260905204004 27 17 16.1 33.8 0.00 0.05 0.03 74 1007.2
20260905202005 26 19 16.1 29.0 0.00 0.05 0.03 75 1007.3
20260905201003 26 3 20.9 37.0 0.00 0.05 0.03 75 1007.3
20260905200504 26 24 22.5 35.4 0.00 0.05 0.03 76 1007.3
20260905195004 26 34 17.7 40.2 0.00 0.05 0.03 75 1007.3
20260905193504 26 22 14.5 27.4 0.00 0.05 0.03 76 1007.4
20260905193004 26 44 9.7 25.7 0.00 0.05 0.03 76 1007.5
20260905192504 26 21 16.1 29.0 0.00 0.05 0.03 77 1007.4
20260905191504 25 30 20.9 35.4 0.00 0.05 0.03 78 1007.3
20260905191003 26 34 19.3 32.2 0.00 0.05 0.03 77 1007.3
20260905190505 26 7 14.5 24.1 0.00 0.05 0.03 77 1007.2
20260905190004 26 26 14.5 20.9 0.00 0.05 0.03 78 1007.1
20260905185005 25 26 14.5 29.0 0.00 0.05 0.03 77 1007.1
20260905184004 24 24 17.7 35.4 0.00 0.05 0.03 79 1007.0
20260905181004 22 62 14.5 25.7 0.00 0.05 0.03 83 1007.4
20260905180503 22 25 11.3 27.4 0.00 0.05 0.03 84 1007.4
20260905180004 22 23 14.5 32.2 0.00 0.05 0.03 84 1007.5
20260905175004 22 7 11.3 20.9 0.00 0.08 0.03 85 1007.3
20260905173504 21 37 14.5 24.1 0.00 0.08 0.03 85 1006.9
20260905171504 21 357 11.3 32.2 0.00 0.08 0.03 87 1006.9
20260905170504 21 25 16.1 27.4 0.00 0.08 0.03 87 1006.8
20260905165004 20 20 16.1 25.7 0.00 0.08 0.03 87 1006.6
20260905162004 20 45 11.3 19.3 0.00 0.08 0.03 84 1006.7
20260905161504 20 52 6.4 16.1 0.00 0.08 0.03 83 1006.7
20260905161003 20 31 11.3 22.5 0.00 0.08 0.03 85 1006.6
20260905155004 19 31 8.0 16.1 0.00 0.10 0.03 84 1006.6
20260905154504 19 42 6.4 16.1 0.00 0.10 0.03 84 1006.6
20260905154005 19 46 4.8 12.9 0.00 0.10 0.03 84 1006.6
20260905153003 19 29 8.0 22.5 0.00 0.10 0.03 84 1006.4
20260905152504 19 29 9.7 19.3 0.00 0.13 0.03 85 1006.3
20260905151504 19 13 8.0 12.9 0.00 0.13 0.03 85 1006.4
20260905150504 18 37 9.7 14.5 0.00 0.13 0.03 83 1006.4
20260905145004 18 18 6.4 16.1 0.00 0.13 0.03 87 1006.4
20260905144503 18 75 6.4 11.3 0.00 0.13 0.03 87 1006.5
20260905144004 18 80 8.0 11.3 0.00 0.13 0.03 87 1006.6
20260905143504 18 73 8.0 12.9 0.00 0.13 0.03 87 1006.5
20260905142504 18 74 4.8 8.0 0.00 0.13 0.03 87 1006.6
20260905141004 18 85 8.0 11.3 0.00 0.13 0.03 86 1006.7
20260905140503 18 76 4.8 11.3 0.00 0.13 0.03 86 1006.7
20260905134504 18 83 6.4 11.3 0.00 0.13 0.03 86 1006.6
20260905134004 18 52 3.2 11.3 0.00 0.13 0.03 86 1006.6
20260905133504 18 36 4.8 8.0 0.00 0.13 0.03 86 1006.6
20260905132504 18 80 4.8 8.0 0.00 0.13 0.03 85 1006.6
20260905131505 18 5 3.2 11.3 0.00 0.13 0.03 84 1006.5
20260905131004 18 9 4.8 8.0 0.00 0.13 0.03 84 1006.5
20260905130005 18 85 1.6 11.3 0.00 0.13 0.03 85 1006.5
20260905125004 18 25 6.4 9.7 0.00 0.13 0.03 87 1006.5
20260905124504 18 23 8.0 12.9 0.00 0.13 0.03 87 1006.5
20260905124004 18 126 4.8 11.3 0.00 0.13 0.03 84 1006.6
20260905123504 18 81 6.4 11.3 0.00 0.13 0.03 84 1006.5
20260905122504 19 23 3.2 8.0 0.00 0.13 0.03 83 1006.6
20260905121004 19 31 6.4 12.9 0.00 0.13 0.03 84 1006.8
20260905115004 20 23 9.7 19.3 0.00 0.13 0.03 89 1007.0
20260905113004 20 14 12.9 20.9 0.00 0.13 0.03 89 1007.1
20260905112504 20 11 14.5 29.0 0.03 0.13 0.03 89 1007.2
20260905111004 20 36 12.9 24.1 0.03 0.15 0.03 89 1007.3
20260905110008 20 33 14.5 25.7 0.03 0.15 0.03 90 1007.3
20260905105005 20 34 16.1 25.7 0.03 0.15 0.03 91 1007.5
20260905104504 20 12 14.5 27.4 0.03 0.15 0.03 92 1007.6
20260905103505 20 19 14.5 25.7 0.03 0.15 0.03 91 1007.8
20260905103005 20 18 14.5 29.0 0.03 0.15 0.03 91 1007.8
20260905102504 20 10 12.9 29.0 0.00 0.13 0.00 91 1007.8
20260905102004 20 11 12.9 27.4 0.00 0.13 0.00 91 1007.8